Regional Weather Roundup
Issued by NWS

Home | Current Version | Previous Version | Graphics & Text | Print | Product List | Glossary On
Versions: 1 2 3 4 5 6 7 8 9 10 11 12 13 14 15 16 17 18 19 20 21 22 23 24 25 26 27 28 29 30 31 32 33 34 35 36 37 38 39 40 41 42 43 44 45 46 47 48 49 50
000
ASUS43 KBIS 220510
RWRND

NORTH DAKOTA REGIONAL WEATHER ROUNDUP
NATIONAL WEATHER SERVICE BISMARCK ND
1100 PM CST TUE NOV 21 2017

NOTE: "FAIR" INDICATES FEW OR NO CLOUDS BELOW 12,000 FEET WITH NO
SIGNIFICANT WEATHER AND/OR OBSTRUCTIONS TO VISIBILITY.


NDZ001>003-009>011-017-220600-
NORTHWEST NORTH DAKOTA

CITY           SKY/WX    TMP DP  RH WIND       PRES   REMARKS
WILLISTON      CLOUDY    16   4  59 CALM      30.15F
MINOT          CLOUDY     7   2  80 S3        30.22F
MINOT AFB      CLOUDY     3  -2  80 CALM      30.21F
$$

NDZ018>021-031>035-040>046-220600-
SOUTHWEST NORTH DAKOTA

CITY           SKY/WX    TMP DP  RH WIND       PRES   REMARKS
BISMARCK       CLOUDY     8   4  83 E3        30.29F
DICKINSON      CLOUDY    14   5  67 S9        30.13F WCI   2
GARRISON         N/A      5   1  83 CALM      30.22F
HETTINGER ARPT CLOUDY    16   4  59 SE5       30.20F WCI   9
$$

NDZ004>008-012>016-024-026-027-054-220600-
NORTHEAST NORTH DAKOTA

CITY           SKY/WX    TMP DP  RH WIND       PRES   REMARKS
GRAND FORKS    CLOUDY    12   8  84 SW8       30.31S WCI   0
GRND FRKS AFB  CLOUDY    11   6  79 W6        30.30F WCI   1
DEVILS LAKE    CLOUDY     8   4  83 W7        30.26F WCI  -3
$$

NDZ022-023-025-028>030-036>039-047>053-220600-
SOUTHEAST NORTH DAKOTA

CITY           SKY/WX    TMP DP  RH WIND       PRES   REMARKS
FARGO          CLOUDY    12   7  80 W7        30.35R WCI   1
JAMESTOWN      CLOUDY     9   5  84 CALM      30.29F
$$





USA.gov is the U.S. government's official web portal to all federal, state and local government web resources and services.